Time,TemperatureF,DewpointF,PressureIn,WindDirection,WindDirectionDegrees,WindSpeedMPH,WindSpeedGustMPH,Humidity,HourlyPrecipIn,Conditions,Clouds,dailyrainin,SoftwareType,DateUTC
2013-03-06 00:00:00,48.3,42.1,29.76,ESE,112,6.0,8.0,79,0.04,,,0.00,Wunderground v.1.15,2013-03-06 08:00:00,
2013-03-06 00:10:00,48.3,42.1,29.76,SE,126,8.0,8.0,79,0.00,,,0.00,Wunderground v.1.15,2013-03-06 08:10:00,
2013-03-06 00:20:00,48.8,42.2,29.77,ESE,120,7.0,11.0,78,0.00,,,0.00,Wunderground v.1.15,2013-03-06 08:20:00,
2013-03-06 00:30:00,48.8,42.2,29.77,SE,127,7.0,7.0,78,0.00,,,0.00,Wunderground v.1.15,2013-03-06 08:30:00,
2013-03-06 00:40:00,48.9,42.3,29.77,SE,126,7.0,7.0,78,0.00,,,0.00,Wunderground v.1.15,2013-03-06 08:40:00,
2013-03-06 00:50:00,48.9,42.0,29.77,ESE,121,6.0,6.0,77,0.00,,,0.00,Wunderground v.1.15,2013-03-06 08:50:00,
2013-03-06 01:01:00,49.2,42.0,29.77,SSE,147,8.0,8.0,76,0.00,,,0.00,Wunderground v.1.15,2013-03-06 09:01:00,
2013-03-06 01:10:00,49.2,41.6,29.77,SE,137,8.0,8.0,75,0.00,,,0.00,Wunderground v.1.15,2013-03-06 09:10:00,
2013-03-06 01:20:00,49.5,41.2,29.76,ESE,123,9.0,9.0,73,0.00,,,0.00,Wunderground v.1.15,2013-03-06 09:20:00,
2013-03-06 01:30:00,49.5,41.6,29.77,SE,136,8.0,8.0,74,0.00,,,0.00,Wunderground v.1.15,2013-03-06 09:30:00,
2013-03-06 01:40:00,49.5,41.6,29.77,SSE,151,6.0,6.0,74,0.00,,,0.00,Wunderground v.1.15,2013-03-06 09:40:00,
2013-03-06 01:50:00,49.4,41.8,29.77,SSE,150,6.0,7.0,75,0.00,,,0.01,Wunderground v.1.15,2013-03-06 09:50:00,
2013-03-06 02:01:00,49.4,41.8,29.77,SE,126,5.0,11.0,75,0.00,,,0.01,Wunderground v.1.15,2013-03-06 10:01:00,
2013-03-06 02:10:00,49.2,41.6,29.77,SSE,164,6.0,7.0,75,0.00,,,0.01,Wunderground v.1.15,2013-03-06 10:10:00,
2013-03-06 02:20:00,49.1,41.2,29.77,SE,127,6.0,6.0,74,0.00,,,0.01,Wunderground v.1.15,2013-03-06 10:20:00,
2013-03-06 02:30:00,49.2,40.9,29.76,SE,140,8.0,8.0,73,0.00,,,0.02,Wunderground v.1.15,2013-03-06 10:30:00,
2013-03-06 02:40:00,49.4,41.1,29.76,SE,138,6.0,6.0,73,0.00,,,0.02,Wunderground v.1.15,2013-03-06 10:40:00,
2013-03-06 02:50:00,49.8,40.0,29.76,SSE,168,8.0,8.0,69,0.00,,,0.02,Wunderground v.1.15,2013-03-06 10:50:00,
2013-03-06 03:01:00,49.6,40.6,29.77,South,179,9.0,11.0,71,0.00,,,0.02,Wunderground v.1.15,2013-03-06 11:01:00,
2013-03-06 03:10:00,49.2,40.9,29.77,SSE,158,7.0,7.0,73,0.00,,,0.02,Wunderground v.1.15,2013-03-06 11:10:00,
2013-03-06 03:20:00,49.1,41.2,29.77,South,182,8.0,8.0,74,0.00,,,0.02,Wunderground v.1.15,2013-03-06 11:20:00,
2013-03-06 03:30:00,49.4,41.1,29.77,South,188,6.0,6.0,73,0.00,,,0.02,Wunderground v.1.15,2013-03-06 11:30:00,
2013-03-06 03:40:00,49.6,40.9,29.77,SSE,160,8.0,8.0,72,0.00,,,0.02,Wunderground v.1.15,2013-03-06 11:40:00,
2013-03-06 03:50:00,49.6,40.9,29.77,SSW,210,7.0,14.0,72,0.00,,,0.02,Wunderground v.1.15,2013-03-06 11:50:00,
2013-03-06 04:01:00,49.6,40.9,29.79,South,188,9.0,9.0,72,0.00,,,0.03,Wunderground v.1.15,2013-03-06 12:01:00,
2013-03-06 04:10:00,49.1,41.9,29.79,SW,219,6.0,6.0,76,0.00,,,0.03,Wunderground v.1.15,2013-03-06 12:10:00,
2013-03-06 04:20:00,48.8,42.6,29.82,South,182,5.0,8.0,79,0.00,,,0.03,Wunderground v.1.15,2013-03-06 12:20:00,
2013-03-06 04:30:00,48.9,42.7,29.81,South,178,8.0,8.0,79,0.00,,,0.03,Wunderground v.1.15,2013-03-06 12:30:00,
2013-03-06 04:40:00,48.8,42.9,29.81,South,174,7.0,8.0,80,0.00,,,0.03,Wunderground v.1.15,2013-03-06 12:40:00,
2013-03-06 04:50:00,48.5,42.6,29.81,SSE,168,7.0,12.0,80,0.00,,,0.03,Wunderground v.1.15,2013-03-06 12:50:00,
2013-03-06 05:00:00,48.3,42.7,29.81,South,186,9.0,10.0,81,0.00,,,0.03,Wunderground v.1.15,2013-03-06 13:00:00,
2013-03-06 05:10:00,48.0,42.4,29.81,South,176,10.0,10.0,81,0.00,,,0.03,Wunderground v.1.15,2013-03-06 13:10:00,
2013-03-06 05:20:00,47.6,42.7,29.82,South,174,9.0,11.0,83,0.07,,,0.05,Wunderground v.1.15,2013-03-06 13:20:00,
2013-03-06 05:30:00,47.6,42.7,29.82,SSE,165,7.0,8.0,83,0.05,,,0.05,Wunderground v.1.15,2013-03-06 13:30:00,
2013-03-06 05:40:00,47.6,42.7,29.82,SSE,157,7.0,12.0,83,0.00,,,0.05,Wunderground v.1.15,2013-03-06 13:40:00,
2013-03-06 05:50:00,47.4,42.8,29.83,SSE,152,6.0,14.0,84,0.00,,,0.05,Wunderground v.1.15,2013-03-06 13:50:00,
2013-03-06 06:01:00,47.4,42.5,29.83,SSE,160,6.0,7.0,83,0.00,,,0.05,Wunderground v.1.15,2013-03-06 14:01:00,
2013-03-06 06:10:00,47.4,42.8,29.83,South,178,6.0,8.0,84,0.00,,,0.06,Wunderground v.1.15,2013-03-06 14:10:00,
2013-03-06 06:20:00,47.4,43.1,29.85,SSE,160,4.0,10.0,85,0.08,,,0.07,Wunderground v.1.15,2013-03-06 14:20:00,
2013-03-06 06:30:00,47.4,43.1,29.85,SSE,164,5.0,7.0,85,0.00,,,0.07,Wunderground v.1.15,2013-03-06 14:30:00,
2013-03-06 06:40:00,47.6,43.0,29.85,South,175,4.0,4.0,84,0.00,,,0.07,Wunderground v.1.15,2013-03-06 14:40:00,
2013-03-06 06:50:00,47.6,42.7,29.86,South,188,3.0,5.0,83,0.00,,,0.07,Wunderground v.1.15,2013-03-06 14:50:00,
2013-03-06 07:00:00,48.0,42.4,29.88,SSW,209,7.0,7.0,81,0.00,,,0.07,Wunderground v.1.15,2013-03-06 15:00:00,
2013-03-06 07:10:00,47.9,42.3,29.88,SSE,167,3.0,3.0,81,0.00,,,0.07,Wunderground v.1.15,2013-03-06 15:10:00,
2013-03-06 07:20:00,47.7,42.5,29.89,SSE,165,2.0,2.0,82,0.00,,,0.07,Wunderground v.1.15,2013-03-06 15:20:00,
2013-03-06 07:30:00,47.7,42.5,29.90,SSE,165,4.0,4.0,82,0.00,,,0.07,Wunderground v.1.15,2013-03-06 15:30:00,
2013-03-06 07:40:00,47.6,42.4,29.90,SSE,165,4.0,6.0,82,0.00,,,0.07,Wunderground v.1.15,2013-03-06 15:40:00,
2013-03-06 07:50:00,47.9,42.7,29.91,South,178,4.0,4.0,82,0.00,,,0.07,Wunderground v.1.15,2013-03-06 15:50:00,
2013-03-06 08:01:00,48.8,43.5,29.91,SSE,164,5.0,7.0,82,0.00,,,0.07,Wunderground v.1.15,2013-03-06 16:01:00,
2013-03-06 08:10:00,49.1,43.5,29.91,South,184,6.0,6.0,81,0.00,,,0.07,Wunderground v.1.15,2013-03-06 16:10:00,
2013-03-06 08:20:00,49.4,43.2,29.92,South,179,6.0,6.0,79,0.00,,,0.07,Wunderground v.1.15,2013-03-06 16:20:00,
2013-03-06 08:30:00,49.5,42.6,29.93,South,176,5.0,6.0,77,0.00,,,0.07,Wunderground v.1.15,2013-03-06 16:30:00,
2013-03-06 08:40:00,50.4,44.1,29.93,SSE,165,4.0,6.0,79,0.00,,,0.07,Wunderground v.1.15,2013-03-06 16:40:00,
2013-03-06 08:50:00,50.5,43.9,29.93,South,176,6.0,6.0,78,0.00,,,0.07,Wunderground v.1.15,2013-03-06 16:50:00,
2013-03-06 09:00:00,50.8,42.8,29.94,South,179,7.0,7.0,74,0.00,,,0.07,Wunderground v.1.15,2013-03-06 17:00:00,
2013-03-06 09:10:00,51.0,41.6,29.94,SSW,210,9.0,9.0,70,0.00,,,0.07,Wunderground v.1.15,2013-03-06 17:10:00,
2013-03-06 09:20:00,51.3,42.2,29.94,SSW,195,9.0,9.0,71,0.00,,,0.07,Wunderground v.1.15,2013-03-06 17:20:00,
2013-03-06 09:30:00,51.0,40.8,29.94,SW,215,8.0,11.0,68,0.00,,,0.07,Wunderground v.1.15,2013-03-06 17:30:00,
2013-03-06 09:40:00,51.3,40.7,29.94,SSW,193,9.0,9.0,67,0.00,,,0.07,Wunderground v.1.15,2013-03-06 17:40:00,
2013-03-06 09:50:00,51.4,41.6,29.95,South,174,8.0,8.0,69,0.00,,,0.07,Wunderground v.1.15,2013-03-06 17:50:00,
2013-03-06 10:00:00,52.3,42.0,29.95,South,179,6.0,6.0,68,0.00,,,0.07,Wunderground v.1.15,2013-03-06 18:00:00,
2013-03-06 10:10:00,52.8,40.5,29.95,South,185,7.0,7.0,63,0.00,,,0.07,Wunderground v.1.15,2013-03-06 18:10:00,
2013-03-06 10:20:00,52.8,40.1,29.96,South,181,6.0,10.0,62,0.00,,,0.07,Wunderground v.1.15,2013-03-06 18:20:00,
2013-03-06 10:30:00,52.2,42.0,29.96,SSE,158,7.0,10.0,68,0.00,,,0.07,Wunderground v.1.15,2013-03-06 18:30:00,
2013-03-06 10:40:00,52.9,41.4,29.96,SSE,157,7.0,7.0,65,0.00,,,0.07,Wunderground v.1.15,2013-03-06 18:40:00,
2013-03-06 10:50:00,53.1,40.4,29.97,South,171,7.0,8.0,62,0.00,,,0.07,Wunderground v.1.15,2013-03-06 18:50:00,
2013-03-06 11:00:00,53.9,41.2,29.97,SSW,195,7.0,7.0,62,0.00,,,0.07,Wunderground v.1.15,2013-03-06 19:00:00,
2013-03-06 11:10:00,53.8,40.2,29.97,South,182,7.0,8.0,60,0.00,,,0.07,Wunderground v.1.15,2013-03-06 19:10:00,
2013-03-06 11:20:00,53.1,40.4,29.98,South,174,4.0,4.0,62,0.00,,,0.07,Wunderground v.1.15,2013-03-06 19:20:00,
2013-03-06 11:30:00,53.3,40.6,29.98,SSW,202,4.0,4.0,62,0.00,,,0.07,Wunderground v.1.15,2013-03-06 19:30:00,
2013-03-06 11:40:00,54.7,40.2,29.98,SSE,155,7.0,10.0,58,0.00,,,0.07,Wunderground v.1.15,2013-03-06 19:40:00,
2013-03-06 11:50:00,55.0,40.0,29.98,South,188,8.0,8.0,57,0.00,,,0.07,Wunderground v.1.15,2013-03-06 19:50:00,
2013-03-06 12:00:00,55.1,37.8,29.97,SSW,200,9.0,9.0,52,0.00,,,0.07,Wunderground v.1.15,2013-03-06 20:00:00,
2013-03-06 12:10:00,55.4,39.0,29.97,SSW,212,8.0,16.0,54,0.00,,,0.07,Wunderground v.1.15,2013-03-06 20:10:00,
2013-03-06 12:20:00,55.9,38.5,29.97,SSE,168,6.0,6.0,52,0.00,,,0.07,Wunderground v.1.15,2013-03-06 20:20:00,
2013-03-06 12:30:00,55.9,40.9,29.97,South,175,6.0,6.0,57,0.00,,,0.07,Wunderground v.1.15,2013-03-06 20:30:00,
2013-03-06 12:40:00,54.7,39.8,29.97,South,184,6.0,6.0,57,0.00,,,0.07,Wunderground v.1.15,2013-03-06 20:40:00,
2013-03-06 12:50:00,55.3,39.9,29.97,SSE,164,5.0,8.0,56,0.00,,,0.07,Wunderground v.1.15,2013-03-06 20:50:00,
2013-03-06 13:00:00,55.0,40.0,29.96,South,172,6.0,6.0,57,0.00,,,0.07,Wunderground v.1.15,2013-03-06 21:00:00,
2013-03-06 13:10:00,54.4,39.9,29.96,SE,143,5.0,5.0,58,0.00,,,0.07,Wunderground v.1.15,2013-03-06 21:10:00,
2013-03-06 13:20:00,55.0,39.6,29.96,South,172,3.0,5.0,56,0.00,,,0.07,Wunderground v.1.15,2013-03-06 21:20:00,
2013-03-06 13:30:00,54.4,38.6,29.96,SSE,168,5.0,6.0,55,0.00,,,0.07,Wunderground v.1.15,2013-03-06 21:30:00,
2013-03-06 13:40:00,54.4,38.1,29.96,SW,217,3.0,8.0,54,0.00,,,0.07,Wunderground v.1.15,2013-03-06 21:40:00,
2013-03-06 13:50:00,54.7,37.9,29.96,SW,215,5.0,7.0,53,0.00,,,0.07,Wunderground v.1.15,2013-03-06 21:50:00,
2013-03-06 14:00:00,55.6,37.7,29.95,South,175,4.0,4.0,51,0.00,,,0.07,Wunderground v.1.15,2013-03-06 22:00:00,
2013-03-06 14:10:00,56.5,38.1,29.95,South,171,6.0,7.0,50,0.00,,,0.07,Wunderground v.1.15,2013-03-06 22:10:00,
2013-03-06 14:20:00,56.2,36.8,29.95,SSW,206,7.0,12.0,48,0.00,,,0.07,Wunderground v.1.15,2013-03-06 22:20:00,
2013-03-06 14:30:00,56.3,37.4,29.95,SSW,209,7.0,7.0,49,0.00,,,0.07,Wunderground v.1.15,2013-03-06 22:30:00,
2013-03-06 14:40:00,56.2,36.8,29.95,SSW,206,7.0,7.0,48,0.00,,,0.07,Wunderground v.1.15,2013-03-06 22:40:00,
2013-03-06 14:50:00,56.6,36.6,29.94,SW,224,8.0,8.0,47,0.00,,,0.07,Wunderground v.1.15,2013-03-06 22:50:00,
2013-03-06 15:00:00,56.3,36.3,29.94,SW,223,7.0,7.0,47,0.00,,,0.07,Wunderground v.1.15,2013-03-06 23:00:00,
2013-03-06 15:10:00,56.6,36.6,29.94,SSW,206,7.0,8.0,47,0.00,,,0.07,Wunderground v.1.15,2013-03-06 23:10:00,
2013-03-06 15:20:00,56.5,37.0,29.94,SSW,192,7.0,7.0,48,0.00,,,0.07,Wunderground v.1.15,2013-03-06 23:20:00,
2013-03-06 15:30:00,56.9,38.9,29.94,South,191,4.0,4.0,51,0.00,,,0.07,Wunderground v.1.15,2013-03-06 23:30:00,
2013-03-06 15:40:00,57.2,36.0,29.94,South,181,4.0,6.0,45,0.00,,,0.07,Wunderground v.1.15,2013-03-06 23:40:00,
2013-03-06 15:50:00,56.9,35.8,29.94,SSW,192,5.0,6.0,45,0.00,,,0.07,Wunderground v.1.15,2013-03-06 23:50:00,
2013-03-06 16:00:00,56.6,36.0,29.94,SSW,195,3.0,3.0,46,0.00,,,0.07,Wunderground v.1.15,2013-03-07 00:00:00,
2013-03-06 16:10:00,56.3,35.2,29.94,SSW,206,5.0,8.0,45,0.00,,,0.07,Wunderground v.1.15,2013-03-07 00:10:00,
2013-03-06 16:20:00,55.7,35.8,29.94,SW,215,6.0,7.0,47,0.00,,,0.07,Wunderground v.1.15,2013-03-07 00:20:00,
2013-03-06 16:30:00,55.3,35.9,29.94,SW,216,5.0,5.0,48,0.00,,,0.07,Wunderground v.1.15,2013-03-07 00:30:00,
2013-03-06 16:40:00,55.6,36.7,29.94,SW,216,4.0,4.0,49,0.00,,,0.07,Wunderground v.1.15,2013-03-07 00:40:00,
2013-03-06 16:50:00,55.3,36.5,29.94,SW,217,4.0,5.0,49,0.00,,,0.07,Wunderground v.1.15,2013-03-07 00:50:00,
2013-03-06 17:00:00,54.8,36.5,29.93,SW,217,2.0,5.0,50,0.00,,,0.07,Wunderground v.1.15,2013-03-07 01:00:00,
2013-03-06 17:10:00,54.5,37.2,29.93,SW,217,2.0,2.0,52,0.00,,,0.07,Wunderground v.1.15,2013-03-07 01:10:00,
2013-03-06 17:20:00,54.1,36.9,29.93,SW,217,2.0,2.0,52,0.00,,,0.07,Wunderground v.1.15,2013-03-07 01:20:00,
2013-03-06 17:30:00,53.8,38.0,29.93,SW,217,0.0,0.0,55,0.00,,,0.07,Wunderground v.1.15,2013-03-07 01:30:00,
2013-03-06 17:40:00,53.2,37.4,29.93,SW,217,0.0,0.0,55,0.00,,,0.07,Wunderground v.1.15,2013-03-07 01:40:00,
2013-03-06 17:50:00,52.9,37.2,29.93,SW,217,0.0,0.0,55,0.00,,,0.07,Wunderground v.1.15,2013-03-07 01:50:00,
2013-03-06 18:00:00,52.3,36.6,29.93,SW,217,0.0,0.0,55,0.00,,,0.07,Wunderground v.1.15,2013-03-07 02:00:00,
2013-03-06 18:10:00,51.7,36.9,29.93,SW,217,0.0,0.0,57,0.00,,,0.07,Wunderground v.1.15,2013-03-07 02:10:00,
2013-03-06 18:20:00,51.4,36.7,29.93,SW,217,0.0,0.0,57,0.00,,,0.07,Wunderground v.1.15,2013-03-07 02:20:00,
2013-03-06 18:30:00,51.1,36.4,29.93,SW,217,1.0,1.0,57,0.00,,,0.07,Wunderground v.1.15,2013-03-07 02:30:00,
2013-03-06 18:40:00,51.0,36.3,29.93,SW,217,1.0,1.0,57,0.00,,,0.07,Wunderground v.1.15,2013-03-07 02:40:00,
2013-03-06 18:50:00,51.0,35.8,29.93,SW,217,1.0,1.0,56,0.00,,,0.07,Wunderground v.1.15,2013-03-07 02:50:00,
2013-03-06 19:00:00,50.8,35.7,29.93,SW,217,0.0,0.0,56,0.00,,,0.07,Wunderground v.1.15,2013-03-07 03:00:00,
2013-03-06 19:10:00,50.4,35.3,29.93,SW,217,0.0,0.0,56,0.00,,,0.07,Wunderground v.1.15,2013-03-07 03:10:00,
2013-03-06 19:20:00,50.1,34.5,29.93,SW,217,0.0,0.0,55,0.00,,,0.07,Wunderground v.1.15,2013-03-07 03:20:00,
2013-03-06 19:30:00,49.6,35.0,29.93,SW,217,0.0,0.0,57,0.00,,,0.07,Wunderground v.1.15,2013-03-07 03:30:00,
2013-03-06 19:40:00,48.5,35.2,29.93,SW,217,0.0,0.0,60,0.00,,,0.07,Wunderground v.1.15,2013-03-07 03:40:00,
2013-03-06 19:50:00,48.0,34.8,29.93,SW,217,0.0,0.0,60,0.00,,,0.07,Wunderground v.1.15,2013-03-07 03:50:00,
2013-03-06 20:00:00,47.9,35.1,29.93,SW,217,0.0,0.0,61,0.00,,,0.07,Wunderground v.1.15,2013-03-07 04:00:00,
2013-03-06 20:10:00,47.9,35.5,29.93,SW,217,1.0,1.0,62,0.00,,,0.07,Wunderground v.1.15,2013-03-07 04:10:00,
2013-03-06 20:20:00,48.0,35.6,29.93,SW,217,0.0,0.0,62,0.00,,,0.07,Wunderground v.1.15,2013-03-07 04:20:00,
2013-03-06 20:30:00,48.2,36.2,29.93,SW,217,0.0,1.0,63,0.00,,,0.07,Wunderground v.1.15,2013-03-07 04:30:00,
2013-03-06 20:40:00,48.5,36.5,29.93,SW,217,1.0,1.0,63,0.00,,,0.07,Wunderground v.1.15,2013-03-07 04:40:00,
2013-03-06 20:50:00,48.6,36.6,29.93,SW,217,1.0,1.0,63,0.00,,,0.07,Wunderground v.1.15,2013-03-07 04:50:00,
2013-03-06 21:00:00,48.5,36.9,29.93,SW,217,0.0,0.0,64,0.00,,,0.07,Wunderground v.1.15,2013-03-07 05:00:00,
2013-03-06 21:10:00,48.3,36.7,29.93,SW,217,0.0,0.0,64,0.00,,,0.07,Wunderground v.1.15,2013-03-07 05:10:00,
2013-03-06 21:20:00,48.2,37.0,29.93,SW,217,0.0,0.0,65,0.00,,,0.07,Wunderground v.1.15,2013-03-07 05:20:00,
2013-03-06 21:30:00,48.0,36.8,29.93,SW,217,0.0,0.0,65,0.00,,,0.07,Wunderground v.1.15,2013-03-07 05:30:00,
2013-03-06 21:40:00,47.7,36.5,29.93,SW,217,0.0,0.0,65,0.00,,,0.07,Wunderground v.1.15,2013-03-07 05:40:00,
2013-03-06 21:50:00,47.6,36.4,29.93,SW,217,0.0,0.0,65,0.00,,,0.07,Wunderground v.1.15,2013-03-07 05:50:00,
2013-03-06 22:00:00,47.4,36.6,29.93,SW,217,0.0,0.0,66,0.00,,,0.07,Wunderground v.1.15,2013-03-07 06:00:00,
2013-03-06 22:10:00,47.1,36.3,29.93,SW,217,0.0,0.0,66,0.00,,,0.07,Wunderground v.1.15,2013-03-07 06:10:00,
2013-03-06 22:20:00,47.0,36.2,29.92,SW,217,0.0,0.0,66,0.00,,,0.07,Wunderground v.1.15,2013-03-07 06:20:00,
2013-03-06 22:30:00,46.8,36.4,29.92,SW,217,0.0,0.0,67,0.00,,,0.07,Wunderground v.1.15,2013-03-07 06:30:00,
2013-03-06 22:40:00,46.7,36.7,29.92,SW,217,0.0,0.0,68,0.00,,,0.07,Wunderground v.1.15,2013-03-07 06:40:00,
2013-03-06 22:50:00,46.5,37.2,29.92,SW,217,0.0,0.0,70,0.00,,,0.07,Wunderground v.1.15,2013-03-07 06:50:00,
2013-03-06 23:00:00,46.4,37.9,29.92,SW,217,0.0,0.0,72,0.00,,,0.07,Wunderground v.1.15,2013-03-07 07:00:00,
2013-03-06 23:10:00,46.4,37.9,29.92,SW,217,0.0,0.0,72,0.00,,,0.07,Wunderground v.1.15,2013-03-07 07:10:00,
2013-03-06 23:20:00,46.2,37.7,29.91,SW,217,0.0,0.0,72,0.00,,,0.07,Wunderground v.1.15,2013-03-07 07:20:00,
2013-03-06 23:30:00,46.2,38.0,29.91,SW,217,0.0,0.0,73,0.00,,,0.07,Wunderground v.1.15,2013-03-07 07:30:00,
2013-03-06 23:40:00,46.2,38.0,29.91,SW,217,0.0,0.0,73,0.00,,,0.07,Wunderground v.1.15,2013-03-07 07:40:00,
2013-03-06 23:50:00,46.2,38.4,29.91,SW,217,0.0,0.0,74,0.00,,,0.07,Wunderground v.1.15,2013-03-07 07:50:00,